Location: Theydon Bois
(51.6750°N, 0.1050°E)
Time: 01:50:16
(UTC+01:00)

Daily predictions for brighter satellites

Satellite Brightness Start Highest point End
(mag) Time Altitude Azimuth Time Altitude Azimuth Time Altitude Azimuth
Cosmos 1812 3.8 00:07:41 37° NE 00:07:41 37° NE 00:10:30 10° NNE
Cosmos 883 Rocket 4.3 00:05:19 53° S 00:06:53 87° E 00:13:03 10° N
Cosmos 2208 Rocket 4.2 00:06:03 44° SW 00:07:43 69° WNW 00:13:03 10° NNE
Cosmos 371 Rocket 4.5 00:08:54 30° E 00:08:54 30° E 00:12:32 10° NE
Cosmos 1980 3.6 00:08:20 62° S 00:09:18 78° ESE 00:14:59 10° NNE
Cosmos 1709 Rocket 4.0 00:02:56 10° NNW 00:09:21 82° W 00:11:03 52° S
ALOS 2 2.5 00:10:12 76° ENE 00:10:12 76° ENE 00:14:36 10° NNW
H-2A R/B 4.4 00:09:45 13° WSW 00:10:51 14° W 00:13:03 10° WNW
Okean 3 3.6 00:13:33 68° WNW 00:13:33 68° WNW 00:17:37 10° N
SL-16 R/B 2.9 00:13:40 39° ESE 00:13:40 39° ESE 00:18:48 10° NE
Cosmos 1943 Rocket 4.3 00:09:43 10° NNW 00:14:02 22° NE 00:18:21 10° E
Cosmos 1743 4.3 00:11:54 10° N 00:14:55 27° ENE 00:14:55 27° ENE
IKONOS-2 4.5 00:16:10 82° NNW 00:16:10 82° NNW 00:20:16 10° NNW
CZ-2C R/B 2.7 00:17:14 75° SE 00:17:35 81° ENE 00:22:31 10° NNW
Cosmos 2150 Rocket 4.3 00:13:55 10° NNW 00:19:15 57° WSW 00:19:49 54° SW
Okean 1 4.4 00:21:26 35° ENE 00:21:26 35° ENE 00:24:24 10° NNE
Cosmos 1937 Rocket 3.7 00:15:51 10° NNW 00:21:02 56° WSW 00:21:24 54° SW
Cosmos 1975 Rocket 3.0 00:23:44 83° NNE 00:23:44 83° NNE 00:28:04 10° N
Cosmos 1666 4.4 00:23:16 10° NNE 00:26:21 25° ENE 00:26:21 25° ENE
Cosmos 332 Rocket 4.1 00:27:03 53° E 00:27:03 53° E 00:31:23 10° NNE
Cosmos 2333 Rocket 2.5 00:28:18 39° SW 00:30:24 67° NW 00:36:12 10° NNE
Cosmos 2278 Rocket 3.4 00:31:14 10° NW 00:35:58 28° WSW 00:36:26 27° WSW
Cosmos 2074 Rocket 4.0 00:30:18 10° N 00:36:33 76° ENE 00:37:56 56° SSE
Cosmos 990 Rocket 4.3 00:31:52 10° NNW 00:36:49 49° WSW 00:36:56 49° WSW
ATLAS CENTAUR R/B 3.2 00:39:21 22° ENE 00:39:21 22° ENE 00:41:07 10° ENE
Cosmos 2237 Rocket 2.3 00:36:12 50° SW 00:37:41 75° WNW 00:43:25 10° NNE
CENTAUR R/B 4.5 00:31:16 10° NW 00:37:42 34° N 00:44:49 10° ENE
CZ-4B R/B 3.0 00:40:12 33° NNE 00:40:12 33° NNE 00:42:31 10° N
NOSS 3-1 (C) 3.6 00:36:52 33° WSW 00:39:48 76° NW 00:46:41 10° NE
Cosmos 2285 Rocket 3.9 00:38:48 57° S 00:40:06 75° ESE 00:46:30 10° NNE
Cosmos 1536 Rocket 4.1 00:44:54 49° ENE 00:44:54 49° ENE 00:48:46 10° NNE
Landsat 5 4.0 00:45:10 51° NE 00:45:10 51° NE 00:48:59 10° N
Spot 2 4.2 00:40:40 10° NNE 00:44:36 72° NE 00:44:36 72° NE
Meteor 1-18 Rocket 4.2 00:45:13 64° S 00:46:10 86° E 00:52:06 10° NNE
Cosmos 1125 Rocket 3.4 00:42:56 10° NNW 00:48:19 82° ENE 00:48:56 69° SE
USA 267 3.5 00:46:48 10° E 00:53:17 68° NNE 00:59:47 10° WNW
CZ-2C R/B 2.6 00:47:57 10° NNE 00:53:26 86° WNW 00:54:16 66° SSW
NOSS 3-1 (A) 3.5 00:51:43 40° WSW 00:54:06 80° NW 01:01:00 10° NE
ATLAS 2AS CENTAUR R/B 3.4 00:54:29 41° SE 00:55:55 45° ESE 01:03:30 10° NE
Cosmos 1607 3.9 00:52:53 10° NW 00:59:16 85° SW 01:00:53 54° SSE
CZ-4C R/B 3.8 00:55:05 10° WNW 01:01:08 31° WSW 01:01:48 30° SW
Cosmos 1763 Rocket 3.3 01:01:58 74° SW 01:02:27 87° WNW 01:07:46 10° NNE
Cosmos 1500 4.4 00:59:42 10° NNW 01:02:32 36° WNW 01:02:32 36° WNW
Cosmos 1340 3.7 01:05:47 41° NW 01:05:47 41° NW 01:08:53 10° N
NOSS 3-2 (A) 4.4 00:58:16 10° NW 01:05:19 58° NE 01:13:06 10° ESE
Cosmos 1544 Rocket 4.4 01:02:15 10° NNW 01:06:04 39° W 01:06:04 39° W
Cosmos 1238 Rocket 4.0 01:06:59 44° ESE 01:07:29 46° E 01:12:56 10° NNE
Cosmos 2219 Rocket 3.6 01:05:18 17° W 01:08:59 34° NW 01:14:07 10° NNE
Cosmos 372 Rocket 3.8 01:04:26 10° NNW 01:09:45 87° WSW 01:10:11 76° SSE
Cosmos 1814 Rocket 4.3 01:10:30 51° WSW 01:11:23 59° WNW 01:16:29 10° NNE
Cosmos 1975 4.0 01:08:24 10° NNW 01:11:20 34° WNW 01:11:20 34° WNW
Meteor 2-13 Rocket 4.4 01:11:07 10° NNW 01:17:10 67° W 01:18:13 56° SW
ARGOS Delta rocket 3.7 01:17:55 10° N 01:22:21 70° WNW 01:22:22 70° WNW
COSMOS 2455 4.3 01:19:19 10° NNW 01:24:52 36° NE 01:30:23 10° E
Cosmos 1437 Rocket 4.3 01:23:56 10° N 01:27:21 28° ENE 01:27:44 28° ENE
ATLAS 3B R/B 2.6 01:22:30 10° NW 01:29:19 64° SW 01:30:34 54° S
Cosmos 1025 Rocket 3.7 01:30:29 44° E 01:30:29 44° E 01:34:33 10° NNE
Cosmos 1603 3.9 01:30:43 53° SE 01:31:21 56° ESE 01:36:59 10° NE
Uosat 12 SS-18 rocket 4.3 01:34:12 64° ESE 01:34:12 64° ESE 01:39:16 10° NE
Okean 1-7 Rocket 3.9 01:34:39 57° E 01:34:39 57° E 01:38:53 10° NNE
Cosmos 2369 Rocket 2.1 01:29:21 10° NNW 01:35:01 86° ENE 01:36:17 56° SE
Cosmos 1689 Rocket 4.4 01:37:50 23° NW 01:37:50 23° NW 01:39:21 10° NNW
Cosmos 44 Rocket 3.8 01:33:21 10° NW 01:38:02 54° NE 01:40:09 29° ESE
H-2A R/B 2.7 01:35:58 10° NNE 01:39:14 57° NE 01:39:14 57° NE
USA 238 DEB 3.7 01:36:21 10° NW 01:43:23 70° SW 01:45:45 44° SSE
USA 238 3.7 01:36:27 10° NW 01:43:29 71° SW 01:45:54 44° SSE
Cosmos 841 Rocket 3.9 01:42:58 45° W 01:44:01 53° WNW 01:49:06 10° NNE
Cosmos 540 Rocket 3.3 01:44:29 73° S 01:44:59 85° ESE 01:50:10 10° NNE
Nadezhda 1 Rocket 4.0 01:43:31 52° SW 01:45:01 71° WNW 01:51:18 10° N
NOSS 2-3 (C) 3.9 01:44:36 67° SSE 01:45:04 72° SE 01:50:58 10° NE
SL-8 Rocket 4.2 01:39:15 10° N 01:45:22 64° ENE 01:47:41 39° SE
Cosmos 2058 Rocket 3.7 01:42:49 10° N 01:47:04 47° ENE 01:47:43 43° E
Meteor 1-23 Rocket 4.3 01:46:21 53° SSE 01:47:28 65° E 01:53:01 10° NNE
Cosmos 371 Rocket 4.1 01:47:33 38° W 01:48:32 43° WNW 01:53:14 10° NNE
OceanSat 1 rocket 4.5 01:44:33 10° NNE 01:49:24 89° ESE 01:49:49 75° SSW
Cosmos 1743 4.4 01:47:44 10° NNW 01:50:03 25° WNW 01:50:03 25° WNW
Cosmos 1437 4.2 01:56:45 37° N 01:56:45 37° N 01:58:54 10° N
Gbstr 26 Del rocket 4.4 01:52:33 37° SW 01:56:05 70° SSE 02:03:41 10° ENE
SL-16 R/B 2.9 01:55:31 33° W 01:57:37 47° NW 02:03:08 10° NNE
Cosmos 1943 Rocket 2.3 01:53:04 10° NNW 01:58:48 75° ENE 02:01:16 35° SE
Meteor 1-15 Rocket 4.2 01:53:41 10° NNW 01:59:34 78° W 02:00:51 56° S
USA 215 3.4 01:54:18 10° ENE 02:00:42 54° SE 02:02:11 45° S
Cosmos 304 Rocket 3.6 02:01:38 72° SW 02:02:06 83° WNW 02:06:58 10° NNE
Cosmos 1666 4.2 01:58:46 10° NNW 02:01:19 28° WNW 02:01:19 28° WNW
Cosmos 1295 Rocket 4.3 01:56:31 10° NNW 02:02:38 80° W 02:04:16 51° S
Cosmos 1461 3.0 02:01:54 10° NW 02:05:58 72° NE 02:06:26 64° E
Cosmos 1892 Rocket 3.9 02:07:08 51° ESE 02:07:38 55° E 02:12:02 10° NNE
Cosmos 2341 Rocket 4.1 02:02:33 10° NNW 02:08:42 62° W 02:10:13 48° SW
Meteor 2-9 Rocket 4.5 02:06:40 10° NNW 02:11:45 45° W 02:12:12 44° WSW
PSLV R/B 3.8 02:11:55 86° SSE 02:12:01 90° W 02:16:11 10° NNW
CZ-4B R/B 4.0 02:13:48 13° WNW 02:13:48 13° WNW 02:14:28 10° NW
NOSS 3-2 (C) 3.9 02:07:24 10° NW 02:14:43 88° NE 02:22:45 10° SE
SL-24 R/B 4.1 02:14:55 63° WSW 02:14:57 63° WSW 02:19:31 10° NNW
Cosmos 2333 Rocket 4.4 02:11:33 10° W 02:15:49 21° NNW 02:20:04 10° NNE
ATLAS CENTAUR R/B 2.2 02:15:37 38° WNW 02:16:22 43° NW 02:20:12 10° NNE
Cosmos 405 3.9 02:14:11 10° NNW 02:16:51 42° NW 02:16:51 42° NW
NOSS 2-3 (D) 4.1 02:18:21 49° WSW 02:19:47 77° NW 02:25:52 10° NE
Cosmos 1515 3.8 02:21:42 65° E 02:21:42 65° E 02:25:29 10° NNE
Cosmos 405 Rocket 3.5 02:22:49 41° WNW 02:22:49 41° WNW 02:26:04 10° N
Cosmos 2237 Rocket 4.2 02:18:24 10° W 02:22:45 22° NW 02:27:06 10° NNE
CENTAUR R/B 3.6 02:22:30 10° NW 02:29:54 58° NE 02:38:02 10° ESE
PSLV R/B 3.7 02:26:08 10° NNE 02:30:51 76° WNW 02:31:38 60° SW
Cosmos 1959 Rocket 4.4 02:25:12 10° NNW 02:31:26 77° W 02:33:50 40° S
Cosmos 44 2.8 02:27:43 10° NW 02:32:08 84° SW 02:32:57 58° SSE
SL-08 R/B 3.4 02:30:45 41° SSE 02:32:23 75° ENE 02:37:12 10° NNW
SL-08 R/B 4.4 02:28:04 10° NNW 02:34:25 81° W 02:37:01 38° S
Cosmos 1606 Rocket 4.2 02:31:29 10° NNW 02:35:32 40° W 02:35:32 40° W
Cosmos 1809 Rocket 4.3 02:30:06 10° NNW 02:36:17 82° W 02:38:50 38° S
USA 267 3.2 02:29:54 10° SE 02:36:24 64° SW 02:42:55 10° WNW
Meteor 2-4 Rocket 4.2 02:35:05 37° WSW 02:36:29 45° WNW 02:41:43 10° N
ADEOS Rocket 4.5 02:31:47 10° NE 02:36:51 29° E 02:41:39 13° SSE
Helios 1A Rocket 2.8 02:34:41 10° N 02:38:45 70° WNW 02:39:08 64° WSW
Meteor 1-4 Rocket 3.8 02:35:09 10° N 02:38:48 41° ENE 02:40:20 27° ESE
ARIANE 5 R/B 4.3 02:35:41 10° NE 02:40:04 26° E 02:43:31 14° SE
Cosmos 2228 3.0 02:37:01 10° NNW 02:41:23 64° W 02:41:50 59° SW
Cosmos 1538 Rocket 3.9 02:42:10 48° SSW 02:43:39 84° ESE 02:48:52 10° NNE
Cosmos 1656 Rocket 3.7 02:38:20 10° NNW 02:43:48 76° ENE 02:48:36 13° SE
Aureole 1 Rocket 4.4 02:43:28 26° SSE 02:45:25 35° ESE 02:49:20 10° NE
NOSS 3-4 (A) 4.3 02:43:29 28° SSE 02:46:00 39° ESE 02:51:59 10° NE
NOSS 3-4 (C) 4.3 02:43:34 28° SSE 02:46:06 39° ESE 02:52:05 10° NE
ATLAS 2AS CENTAUR R/B 3.3 02:41:53 26° WSW 02:46:46 68° NW 02:54:56 10° NE
IRS-P3 4.2 02:45:13 10° NNE 02:50:35 72° ESE 02:52:45 37° S
Cosmos 1943 3.2 02:52:31 40° SW 02:54:38 77° WNW 03:00:19 10° NNE
NOSS 3-2 (A) 4.0 02:49:16 10° NW 02:56:24 54° SW 03:03:56 11° SSE
Okean 2 4.3 02:58:02 33° W 02:58:32 34° WNW 03:02:20 10° N
Cosmos 1437 Rocket 3.9 03:00:15 10° NNW 03:03:11 28° WNW 03:03:11 28° WNW
Cosmos 1821 Rocket 4.3 03:00:35 10° N 03:06:40 64° ENE 03:12:43 10° SSE
Cosmos 1025 Rocket 4.5 03:07:22 22° W 03:08:13 24° WNW 03:11:47 10° NNW
Cosmos 1812 Rocket 3.4 03:05:14 10° NNW 03:09:40 85° W 03:11:29 35° S
SL-16 R/B 2.5 03:05:18 15° SSE 03:10:29 90° NE 03:16:42 10° NNW
COSMOS 2455 2.7 03:05:16 10° NW 03:11:17 70° WSW 03:17:14 10° SSE
Cosmos 292 Rocket 3.8 03:11:16 39° SW 03:13:02 75° WNW 03:17:55 10° NNE
Iridium 2 4.4 03:09:58 10° NNW 03:13:33 37° W 03:13:43 37° W
H-2A R/B 4.4 03:12:40 10° NNW 03:14:56 15° WNW 03:15:52 14° WNW
NPP 3.6 03:09:33 10° NNE 03:14:59 82° WNW 03:17:35 32° SSW
Cosmos 921 Rocket 4.0 03:13:15 10° NNW 03:17:37 50° ENE 03:22:00 10° SE
Cosmos 2369 Rocket 3.7 03:14:33 10° WNW 03:18:03 19° W 03:18:03 19° W
ATLAS 3B R/B 4.3 03:15:08 10° WNW 03:17:48 15° W 03:17:48 15° W
Cosmos 44 Rocket 4.1 03:15:14 10° WNW 03:18:48 29° WSW 03:18:48 29° WSW
Cosmos 773 Rocket 4.0 03:18:20 34° SW 03:20:35 70° WNW 03:25:48 10° NNE
Genesis I 3.2 03:17:02 10° NW 03:20:55 54° SW 03:22:14 36° S
AQUA 3.8 03:16:54 10° NNE 03:21:43 83° WNW 03:23:54 33° SSW
Cosmos 2058 Rocket 4.5 03:21:25 10° NW 03:24:47 22° W 03:24:59 22° W
Lacrosse 5 rocket 4.0 03:23:42 10° SSE 03:25:43 13° ESE 03:27:44 10° E
EXPRESS MD2 3.9 03:18:10 10° W 03:26:14 71° SSW 03:30:03 10° ESE
Resurs 1-4 Rocket 2.5 03:21:07 10° NNE 03:26:20 61° ESE 03:30:01 20° S
Cosmos 2112 Rocket 4.3 03:24:24 26° S 03:27:24 65° ESE 03:32:38 10° NNE
Cosmos 1934 Rocket 4.2 03:24:49 10° N 03:31:06 76° E 03:37:26 10° SSE
CZ-3A R/B 1.8 03:33:03 21° E 03:33:03 21° E 03:34:05 10° ENE
CZ-2D R/B 2.4 03:27:06 10° NNE 03:32:27 66° ESE 03:36:13 19° S
Cosmos 1805 3.2 03:31:49 10° N 03:35:47 89° W 03:38:20 21° S
Cosmos 1624 Rocket 3.9 03:32:56 10° NNW 03:38:11 83° WSW 03:43:24 10° SSE
USA 161 2.9 03:35:37 10° SE 03:38:25 39° ENE 03:41:08 10° N
Cosmos 1271 Rocket 2.7 03:34:39 10° N 03:38:26 80° ENE 03:41:23 16° SSE
Meteor 1-22 Rocket 4.5 03:33:07 10° NNW 03:38:28 46° W 03:41:19 25° SSW
Spot 4 Rocket 4.0 03:36:01 10° NNE 03:41:14 89° ESE 03:44:40 22° SSW
RESURS DK-1 2.9 03:39:14 25° S 03:41:24 52° ESE 03:45:27 10° NE
Cosmos 1943 Rocket 3.3 03:37:41 10° NW 03:41:59 23° WSW 03:42:44 22° WSW
Cosmos 1626 Rocket 4.0 03:41:09 30° SW 03:42:58 48° WNW 03:47:14 10° N
SL-16 R/B 4.5 03:39:45 10° WNW 03:43:14 16° NNW 03:46:45 10° NNE
Gbstr 26 Del rocket 4.4 03:35:34 10° W 03:43:43 89° N 03:50:55 10° E
USA 215 3.4 03:37:24 10° ENE 03:43:56 74° NNW 03:49:32 15° WSW
ERS-1 4.4 03:39:28 10° NNE 03:44:29 86° WNW 03:47:46 22° SSW
COSMOS 2406 3.6 03:40:32 20° S 03:44:34 62° ESE 03:50:15 10° NE
USA 32 4.2 03:44:52 13° S 03:49:37 72° E 03:54:52 10° N
Cosmos 1766 4.0 03:46:17 10° NNW 03:49:57 35° W 03:51:14 28° SW
Cosmos 2056 Rocket 3.5 03:45:58 10° NNW 03:51:21 71° WSW 03:56:35 10° SSE
Cosmos 1544 3.2 03:47:53 10° NNW 03:51:32 54° W 03:53:24 25° SSW
Cosmos 1825 Rocket 3.6 03:49:41 18° S 03:52:56 80° E 03:57:22 10° NNE
ADEOS 3.5 03:48:15 10° NNE 03:53:32 86° WNW 03:57:28 18° SSW
Cosmos 1842 3.2 03:51:46 25° SSW 03:53:54 75° W 03:57:48 10° N
Okean O Rocket 4.1 03:52:42 10° NE 03:55:56 19° E 03:59:08 10° SE
ATLAS CENTAUR R/B 3.8 03:53:47 10° NW 03:56:18 16° NNW 03:58:44 10° NNE
MOS 1 Rocket 4.4 03:52:28 10° NNE 03:56:31 38° E 04:00:37 10° SSE
Cosmos 389 Rocket 3.3 03:54:07 10° N 03:57:45 55° ENE 04:01:18 10° SSE
OPS 6432 4.1 03:56:36 31° WSW 03:57:54 73° NW 04:00:56 10° NE
UNK 4.3 03:56:54 22° SSW 03:59:18 38° W 04:03:35 10° NNW
Cosmos 1680 Rocket 3.6 03:57:45 22° SW 04:01:11 64° WNW 04:06:27 10° NNE
Cosmos 839 Rocket 4.0 03:57:15 10° NW 04:03:27 76° SW 04:10:28 10° SSE
IRS-1D 3.6 04:00:48 10° N 04:05:57 67° WNW 04:10:01 17° SSW
Nadezhda 3 Rocket 4.4 04:05:31 18° SW 04:10:06 50° WNW 04:16:17 10° N
Meteor 1-4 Rocket 4.2 04:10:54 10° NW 04:13:42 20° W 04:14:37 18° WSW
Cosmos 1953 2.7 04:13:08 10° NNW 04:16:57 44° W 04:20:21 13° SSW
ARIANE 5 R/B 2.8 04:14:22 10° N 04:19:31 56° WNW 04:23:53 14° SW
USA 267 4.2 04:15:24 10° S 04:20:18 22° SW 04:25:13 10° WNW
CENTAUR R/B 3.2 04:13:19 10° NW 04:20:51 56° SW 04:28:58 10° SSE
Cosmos 1470 2.7 04:18:03 10° NNW 04:21:57 71° W 04:25:50 10° S
GEOS 3 Rocket 3.7 04:17:04 10° NE 04:22:21 79° NW 04:26:54 14° SW
ADEOS Rocket 3.2 04:17:01 10° N 04:22:44 60° WNW 04:28:37 12° SW
Cosmos 1707 3.6 04:19:24 10° S 04:23:10 51° E 04:26:57 10° NNE
Landsat 4 3.6 04:21:53 10° S 04:25:36 75° WSW 04:29:21 10° NNW
Cosmos 1452 Rocket 3.5 04:21:14 10° NNW 04:26:31 81° WSW 04:31:46 10° SSE
NOSS 8 (A) 4.5 04:24:51 18° SW 04:27:13 77° NW 04:30:59 10° NE
Aureole 1 Rocket 4.1 04:26:17 14° WSW 04:30:03 35° WNW 04:33:48 10° N
Cosmos 1758 4.3 04:28:49 10° NNW 04:32:23 29° W 04:35:35 12° SSW
UNKNOWN OBJECT B 3.0 04:29:36 10° N 04:33:31 59° WNW 04:37:21 11° SSW
ADEOS II 3.3 04:29:36 10° NNE 04:34:38 43° E 04:39:38 10° S
NOSS 3-4 (A) 3.8 04:30:54 13° WSW 04:36:40 63° NW 04:43:19 10° NE
NOSS 3-4 (C) 3.8 04:31:00 13° WSW 04:36:46 63° NW 04:43:26 10° NE
COBE Rocket 4.4 04:32:02 10° N 04:36:56 47° WNW 04:41:36 11° SW
NOSS 2-2 (D) 4.2 04:33:18 10° SSW 04:37:19 52° SE 04:42:09 10° NE
Cosmos 1727 Rocket 4.0 04:31:24 10° S 04:37:35 88° E 04:43:48 10° N
Tiangong 1 3.0 04:37:51 12° SSW 04:38:25 12° S 04:39:43 10° SSE
Cosmos 1842 Rocket 3.8 04:34:09 10° N 04:38:34 73° E 04:42:58 10° SSE
ATLAS 2AS CENTAUR R/B 4.2 04:31:47 10° W 04:39:12 38° NNW 04:46:40 10° NE
SL-27 R/B 2.9 04:37:09 14° SW 04:40:06 49° WNW 04:43:40 10° NNE
DNEPR-1 R/B 3.7 04:36:13 10° NW 04:40:18 47° SW 04:44:28 10° SSE
Cosmos 1153 Rocket 4.4 04:34:19 10° NNW 04:40:28 73° W 04:46:34 10° S
Cosmos 1818 4.1 04:36:27 10° SSW 04:41:46 56° SE 04:47:07 10° NE
MOS 1-B 4.5 04:36:08 10° NNE 04:42:00 83° ESE 04:47:48 10° SSW
Cosmos 1420 Rocket 4.0 04:39:07 10° NNW 04:44:29 85° WSW 04:49:48 10° SSE
Cosmos-2242 3.4 04:41:22 10° NNW 04:45:37 47° W 04:49:49 10° SSW
Abrixas 2.9 04:43:37 13° WSW 04:45:50 40° S 04:48:32 10° ESE
Cosmos 1758 Rocket 4.0 04:42:02 10° SSW 04:46:13 45° WNW 04:50:25 10° N
Cosmos 1697 Rocket 2.9 04:45:25 10° NNW 04:51:05 78° ENE 04:56:43 10° SE
PSLV R/B 4.2 04:47:31 10° NNE 04:51:36 73° ESE 04:55:43 10° S
Cosmos 1378 3.4 04:48:06 10° S 04:51:50 71° E 04:55:35 10° NNE
Cosmos 2278 3.8 04:46:35 10° NW 04:52:13 59° WSW 04:57:49 10° SSE
Meteor 2-15 4.5 04:48:10 10° S 04:54:19 85° W 05:00:30 10° N
SL-16 R/B 3.9 04:50:42 10° SW 04:54:58 19° W 04:59:14 10° NW
NOSS 2-2 (C) 3.8 04:51:28 10° SW 04:55:37 72° SE 05:00:40 10° NE
Cosmos 921 Rocket 4.3 04:52:06 10° NW 04:55:37 23° W 04:59:10 10° SSW
Cosmos 1802 Rocket 4.3 04:49:21 10° N 04:55:51 80° E 05:02:16 10° SSE
COSMOS 2455 4.4 04:53:01 10° WNW 04:56:09 15° WSW 04:59:17 10° SW
Orbus 7S? 3.6 04:55:27 10° WNW 04:58:48 30° SW 05:01:11 10° SSE
CZ-2C R/B 3.8 04:54:40 10° SSE 04:59:06 84° ENE 05:03:37 10° NNW
Meteor 2-5 Rocket 3.9 04:53:26 10° S 04:59:10 88° E 05:05:03 10° NNE
CZ-4B R/B 3.4 04:54:57 10° NNE 04:59:10 71° ESE 05:03:33 10° S
Cosmos 2369 3.9 04:53:38 10° NW 04:59:13 54° WSW 05:04:47 10° S
Lacrosse 5 rocket 2.2 04:59:37 10° SW 05:04:11 54° SE 05:08:42 10° ENE
COSMOS 2487 2.8 05:00:55 10° SSW 05:04:26 68° ESE 05:08:01 10° NNE
Cosmos 2221 3.3 05:00:47 10° N 05:05:03 58° ENE 05:09:16 10° SSE
Resurs 1-4 Rocket 3.3 05:01:32 10° N 05:05:51 26° WNW 05:10:09 10° WSW
Cosmos 1733 4.4 05:03:08 10° NW 05:06:16 24° W 05:09:23 10° SW
Cosmos 2098 Rocket 3.6 05:04:02 10° NW 05:06:25 20° W 05:08:40 10° SW
USA 161 3.5 05:06:56 10° WSW 05:08:26 13° W 05:09:55 10° WNW
Cosmos 1459 Rocket 4.0 05:03:01 10° NNW 05:09:08 74° W 05:15:19 10° S
Cosmos 2322 Rocket 4.1 05:07:18 10° NNW 05:12:30 35° NE 05:17:41 10° ESE
